Regional Weather Roundup
Issued by NWS

Home | Current Version | Previous Version | Graphics & Text | Print | Product List | Glossary Off
Versions: 1 2 3 4 5 6 7 8 9 10 11 12 13 14 15 16 17 18 19 20 21 22 23 24 25 26 27 28 29 30 31 32 33 34 35 36 37 38 39 40 41 42 43 44 45 46 47 48 49 50

115
ASUS43 KTOP 120359
RWRKS

WEATHER ROUNDUP FOR KANSAS
NATIONAL WEATHER SERVICE GOODLAND KS
1000 PM CST THU FEB 11 2016

NOTE:  "FAIR" INDICATES FEW OR NO CLOUDS BELOW 12,000 FEET WITH NO
SIGNIFICANT WEATHER AND/OR OBSTRUCTIONS TO VISIBILITY.

KSZ001>006-013>018-027>032-041>047-120500-
NORTHWEST KANSAS

CITY           SKY/WX    TMP DP  RH WIND       PRES   REMARKS
GOODLAND       CLEAR     34  27  75 W9        30.22R
HAYS           CLEAR     30  21  69 SW7       30.16S
HILL CITY      CLEAR     35  32  88 W7        30.16S
RUSSELL        CLEAR     32  28  85 SW8       30.15R
$$

KSZ061>065-074>080-084>089-120500-
SOUTHWEST KANSAS

CITY           SKY/WX    TMP DP  RH WIND       PRES   REMARKS
DODGE CITY     CLOUDY    41  27  57 NW9       30.19R
ELKHART          N/A     47  24  40 N9          N/A
GARDEN CITY    CLOUDY    39  28  64 N9        30.19R
GREAT BEND     CLOUDY    32  21  64 S10       30.17S WCI  24
LIBERAL        CLEAR     46  27  46 NE16      30.18R
$$

KSZ066>073-081>083-090>101-120500-
SOUTHEAST KANSAS

CITY           SKY/WX    TMP DP  RH WIND       PRES   REMARKS
CHANUTE        CLOUDY    34  24  67 N5        30.21R
COFFEYVILLE    CLOUDY    34  24  67 NW5       30.21R
HUTCHINSON     CLOUDY    31  23  72 CALM      30.17S
MEDICINE LODGE   N/A     39  31  72 E3        30.16S
NEWTON         CLEAR     37  21  52 CALM      30.20R
PARSONS        CLOUDY    31  25  78 N3        30.21R
WICHITA INTL   CLOUDY    31  24  75 CALM      30.17F
WICHITA JABRA  PTCLDY    34  24  67 CALM      30.17F
WINFIELD       CLEAR     33  23  66 CALM      30.20R
$$

KSZ007>012-019>026-033>040-048>060-102>105-120500-
NORTHEAST KANSAS

CITY           SKY/WX    TMP DP  RH WIND       PRES   REMARKS
CONCORDIA      CLOUDY    29  24  82 CALM      30.15S
EMPORIA        PTCLDY    27  21  78 S7        30.17F
LAWRENCE       PTCLDY    32  23  69 SE3       30.18F
MANHATTAN      MOCLDY    31  26  82 CALM      30.17S
OLATHE IND     PTCLDY    33  23  66 CALM      30.19R
OLATHE EXE     CLOUDY    32  21  64 CALM      30.18F
SALINA         CLOUDY    30  23  75 CALM      30.17S
TOPEKA BILLARD PTCLDY    35  22  58 S5        30.17F
TOPEKA FORBES  CLOUDY    33  23  66 S6        30.16F
$$




USA.gov is the U.S. government's official web portal to all federal, state and local government web resources and services.